Regional Weather Roundup
Issued by NWS

Home | Current Version | Previous Version | Graphics & Text | Print | Product List | Glossary On
Versions: 1 2 3 4 5 6 7 8 9 10 11 12 13 14 15 16 17 18 19 20 21 22 23 24 25 26 27 28 29 30 31 32 33 34 35 36 37 38 39 40 41 42 43 44 45 46 47 48 49 50
000
ASUS43 KMKX 230007
RWRWI

WISCONSIN REGIONAL WEATHER ROUNDUP
NATIONAL WEATHER SERVICE MILWAUKEE/SULLIVAN WI
700 PM CDT FRI MAY 22 2015

NOTE: "FAIR" INDICATES FEW OR NO CLOUDS BELOW 12,000 FEET WITH NO
SIGNIFICANT WEATHER AND/OR OBSTRUCTIONS TO VISIBILITY.

WIZ001-002-006>008-014>016-023>028-230100-
NORTHWEST WISCONSIN

CITY           SKY/WX    TMP DP  RH WIND       PRES   REMARKS
SUPERIOR ARPT  SUNNY     49  37  61 NE6       30.17F
ASHLAND        MOSUNNY   69  32  25 VRB5      30.17F
6HR MIN TEMP:  66; 6HR MAX TEMP:  72;

HAYWARD        SUNNY     71  29  21 CALM      30.18F
6HR MIN TEMP:  65; 6HR MAX TEMP:  73;

SIREN          SUNNY     71  32  23 CALM      30.18F
CUMBERLAND     SUNNY     68  32  26 S5        30.19F
RICE LAKE      SUNNY     70  31  23 SW5       30.21S
CHETEK         SUNNY     69  35  28 CALM      30.19S
LADYSMITH      SUNNY     69  35  28 W3        30.20F
EAU CLAIRE     NOT AVBL
MENOMONIE      MOSUNNY   71  32  24 SW3       30.19F
NEW RICHMOND   SUNNY     71  32  24 CALM      30.19S
OSCEOLA        SUNNY     71  35  26 N5        30.21S HAZE
$$

WIZ003>005-009-010-017-018-230100-
NORTH CENTRAL WISCONSIN

CITY           SKY/WX    TMP DP  RH WIND       PRES   REMARKS
MANITOWISH WTR SUNNY     64  25  22 CALM      30.21S
ARBOR VITAE    SUNNY     65  25  22 NW3       30.21S
WOODRUFF       SUNNY     65  25  22 NW3       30.21S
RHINELANDER    SUNNY     65  26  23 NE3       30.21S
6HR MIN TEMP:  62; 6HR MAX TEMP:  68;

EAGLE RIVER    SUNNY     65  18  16 NW8       30.21S
LAND O LAKES   SUNNY     65  18  16 NW8       30.22S
PHILLIPS       SUNNY     68  31  25 NW5       30.19S
TOMAHAWK       SUNNY     67  25  20 NW3       30.20F
MEDFORD        SUNNY     67  33  28 SW5       30.20F
MERRILL        SUNNY     69  31  25 W3        30.20S
$$

WIZ029-030-035-036-043>047-230100-
CENTRAL WISCONSIN

CITY           SKY/WX    TMP DP  RH WIND       PRES   REMARKS
WAUSAU         SUNNY     68  32  26 W5        30.18F
6HR MIN TEMP:  63; 6HR MAX TEMP:  69;

MOSINEE        NOT AVBL
MARSHFIELD     SUNNY     69  32  25 N3        30.20S
6HR MIN TEMP:  65; 6HR MAX TEMP:  70;

STEVENS POINT  SUNNY     66  32  28 NW5       30.21F
WAUPACA        SUNNY     71  29  21 NW5       30.20F
WAUTOMA        NOT AVBL
WISC RAPIDS    SUNNY     70  29  21 NE3       30.21S
6HR MIN TEMP:  66; 6HR MAX TEMP:  73;

CAMP DOUGLAS   NOT AVBL
$$

WIZ011>013-019>022-031-037>040-048>050-230100-
NORTHEAST WISCONSIN

CITY           SKY/WX    TMP DP  RH WIND       PRES   REMARKS
ANTIGO         SUNNY     66  32  28 NW7       30.20F
SHAWANO        SUNNY     71  30  22 W3        30.19F
OCONTO         SUNNY     58  32  37 SE10      30.23R
STURGEON BAY   SUNNY     52  21  30 SE13      30.27S
6HR MIN TEMP:  52; 6HR MAX TEMP:  55;

GREEN BAY      SUNNY     61  31  32 SE15      30.22S
6HR MIN TEMP:  61; 6HR MAX TEMP:  71;

MANITOWOC      NOT AVBL
APPLETON       MOSUNNY   64  36  34 SE6       30.21F
CLINTONVILLE   SUNNY     70  28  21 W6        30.19F
OSHKOSH        MOSUNNY   66  38  35 E9        30.21S
6HR MIN TEMP:  64; 6HR MAX TEMP:  67;

$$

WIZ032>034-041-042-053>061-230100-
SOUTHWEST WISCONSIN

CITY           SKY/WX    TMP DP  RH WIND       PRES   REMARKS
LA CROSSE      PTSUNNY   74  34  23 CALM      30.18S
6HR MIN TEMP:  72; 6HR MAX TEMP:  77;

SPARTA         PTSUNNY   71  33  25 W5        30.20S
VIROQUA        PTSUNNY   69  32  25 CALM      30.21S
BOSCOBEL       CLOUDY    73  39  29 N3        30.19S
6HR MIN TEMP:  72; 6HR MAX TEMP:  77;

PRAIRIE DU CHI CLOUDY    73  34  24 S5        30.18S
PLATTEVILLE    CLOUDY    71  34  25 CALM      30.20S
$$

WIZ056-057-062-063-064-067-068-230100-
SOUTH CENTRAL WISCONSIN

CITY           SKY/WX    TMP DP  RH WIND       PRES   REMARKS
REEDSBURG      PTSUNNY   70  36  28 CALM      30.19S
BARABOO/DELLS  PTSUNNY   70  32  24 CALM      30.20S
LONE ROCK      NOT AVBL
MINERAL POINT  CLOUDY    72  34  25 CALM      30.21S
MADISON        PTSUNNY   69  39  33 SE3       30.21R
6HR MIN TEMP:  66; 6HR MAX TEMP:  73;

MIDDLETON      PTSUNNY   72  32  23 E5        30.21S
WATERTOWN      PTSUNNY   68  38  34 S5        30.21S
MONROE         CLOUDY    70  36  28 CALM      30.21S
JANESVILLE     SUNNY     72  32  23 CALM      30.20S
$$

WIZ051-052-058>065-066-070>072-230100-
SOUTHEAST WISCONSIN

CITY           SKY/WX    TMP DP  RH WIND       PRES   REMARKS
MILWAUKEE      PTSUNNY   50  28  42 SE7       30.28R
6HR MIN TEMP:  50; 6HR MAX TEMP:  57;

WAUKESHA       PTSUNNY   57  30  35 E10       30.26R
MILWAUKEE/TIMM SUNNY     54  18  24 SE7       30.28R
RACINE         PTSUNNY   52  27  38 SE7       30.29R
6HR MIN TEMP:  52; 6HR MAX TEMP:  58;

BURLINGTON     PTSUNNY   59  30  33 SE9       30.25R
KENOSHA        PTSUNNY   54  27  35 E10       30.27R
6HR MIN TEMP:  54; 6HR MAX TEMP:  60;

FOND DU LAC    MOSUNNY   62  33  33 SE16      30.22R
6HR MIN TEMP:  62; 6HR MAX TEMP:  71; 6HR PCP: TRACE;

SHEBOYGAN      SUNNY     53  24  32 SE7       30.26F
6HR MIN TEMP:  53; 6HR MAX TEMP:  60;

WEST BEND      MOSUNNY   55  23  28 SE9       30.25S
JUNEAU         PTSUNNY   68  37  31 CALM      30.23R
$$

LSZ147-162-230100-
LAKE SUPERIOR

STATION/POSITION TIME  TEMP    WIND        PRES    WAVE
                       AIR SEA DIR/SP/G            HT/PER
                 (UTC) (F)     (DEG/KT/KT) (MB)    (FT/S)
W MID LAKE BUOY  2250   40 37  120/  6/  8   N/A     0
DEVILS ISLAND    2300   43      60/  5/  6   N/A
PORT WING        2300   45      20/  7/  7   N/A
SAXON HARBOR     2300   62        CALM       N/A
$$

LMZ867-665-643>646-230100-
LAKE MICHIGAN

STATION/POSITION TIME  TEMP    WIND        PRES    WAVE
                       AIR SEA DIR/SP/G            HT/PER
                 (UTC) (F)     (DEG/KT/KT) (MB)    (FT/S)
CHAMBERS ISLAND  2300   55     140/  6/ 15   N/A
N MID LAKE BUOY  2250   42 36  180/  8/ 10   N/A     0
NORTHPORT PIER   2300   47     150/  9/ 13   N/A
SISTER BAY       2132   54     160/ 12/ 16   N/A
KEWAUNEE LAKESHO 2300   45     160/ 11/ 12   N/A
SHEBOYGAN LAKESH 2300          120/ 10/ 11   N/A
PORT WASHINGTON  2340   48     170/  4/  5   N/A
ATWATER BUOY     2300   45 45  100/  2/  4   N/A
MILWAUKEE LAKESH 2300   46      70/  4/  5   N/A
S MID LAKE BUOY  2250   42 38   50/ 10/ 10   N/A     0
KENOSHA   LAKESH 2300   51     130/  3/  5   N/A
$$

TC  - TEMPERATURE IN CELSIUS
VSB - VISIBILITY IN STATUTE MILES
WCI - WIND CHILL INDEX
HX  - HEAT INDEX



USA.gov is the U.S. government's official web portal to all federal, state and local government web resources and services.